This demonstration page uses our WeatherBlox Daily Observations layout. Learn more.

Left ArrowRight Arrow

39.92423, -83.80882

Hourly Observations for June 5, 2018

Temp ( °F °C ) Dew Point ( °F °C ) Humidity (%) Winds ( mph kmh ) Pressure ( in mb ) Visibility ( mi km ) Precip ( " mm )
12:56 am 00:56 Clear 57 13.9 48 8.9 72 72 SW 6 9 29.91 1013 10 16.0934 N/A
1:56 am 01:56 Clear 57 13.9 47 8.3 69 69 SW 7 11 29.91 1013 10 16.0934 N/A
2:56 am 02:56 Clear 57 13.9 46 7.8 67 67 SSW 7 11 29.89 1012 10 16.0934 N/A
3:56 am 03:56 Clear 56 13.3 47 8.3 72 72 SW 9 15 29.89 1012 10 16.0934 N/A
4:56 am 04:56 Mostly Cloudy 57 13.9 46 7.8 67 67 WSW 8 13 29.89 1012 10 16.0934 N/A
5:56 am 05:56 Mostly Cloudy 56 13.3 47 8.3 72 72 WSW 6 9 29.9 1013 10 16.0934 N/A
6:56 am 06:56 Cloudy 60 15.6 48 8.9 65 65 WSW 6 9 29.9 1012 10 16.0934 N/A
7:56 am 07:56 Cloudy 63 17.2 49 9.4 60 60 WSW 9 15 29.9 1012 10 16.0934 N/A
8:56 am 08:56 Mostly Cloudy 65 18.3 50 10 59 59 W 10 17 29.91 1013 10 16.0934 N/A
9:56 am 09:56 Cloudy 66 18.9 52 11.1 61 61 WSW 9 15 29.91 1013 10 16.0934 N/A
10:56 am 10:56 Cloudy with Light Rain 66 18.9 54 12.2 65 65 WSW 8 13 29.89 1012 10 16.0934 N/A
11:56 am 11:56 Cloudy 68 20 54 12.2 61 61 WSW 8 13 29.88 1012 10 16.0934 N/A
12:56 pm 12:56 Cloudy 72 22.2 53 11.7 52 52 WSW 13 20 29.85 1011 10 16.0934 N/A
1:56 pm 13:56 Mostly Cloudy 72 22.2 53 11.7 52 52 WSW 9 15 29.84 1010 10 16.0934 N/A
2:56 pm 14:56 Cloudy with Rain 71 21.7 55 12.8 57 57 W 9 15 29.84 1011 10 16.0934 N/A
3:56 pm 15:56 Cloudy with Light Rain 70 21.1 58 14.4 66 66 NNW 10 17 29.84 1011 10 16.0934 0.01 0.254
4:56 pm 16:56 Cloudy with Nearby Thunderstorms 65 18.3 58 14.4 78 78 NE 8 13 29.84 1010 8 12.87472 0.02 0.508
5:28 pm 17:28 Cloudy with Light Rain 64 18 61 16 88 88 NNE 5 7 29.83 1010 10 16.0934 0.01 0.254
5:56 pm 17:56 Cloudy with Nearby Thunderstorms 65 18.3 58 14.4 78 78 N N/A 29.83 1010 10 16.0934 0.01 0.254
6:16 pm 18:16 Cloudy with Light Thunderstorms 64 18 59 15 83 83 N N/A 29.8 1009 2 3.21868 0.08 2.032
6:25 pm 18:25 Cloudy with Rain 64 18 57 14 78 78 NW 3 6 29.83 1010 10 16.0934 0.1 2.54
6:35 pm 18:35 Cloudy with Heavy Thunderstorms 63 17 59 15 88 88 WNW 6 9 29.8 1009 3 4.82802 0.28 7.112
6:56 pm 18:56 Cloudy with Nearby Thunderstorms 63 17.2 61 16.1 93 93 W 6 9 29.82 1010 10 16.0934 0.31 7.874
7:37 pm 19:37 Cloudy 63 17 61 16 94 94 W 5 7 29.8 1009 10 16.0934 N/A
7:56 pm 19:56 Cloudy 63 17.2 61 16.1 93 93 W 3 6 29.83 1010 10 16.0934 N/A
8:56 pm 20:56 Cloudy 63 17.2 62 16.7 97 97 WSW 5 7 29.82 1010 10 16.0934 N/A
9:56 pm 21:56 Mostly Clear 62 16.7 61 16.1 96 96 W 5 7 29.83 1010 7 11.26538 N/A
10:56 pm 22:56 Cloudy with Mist and Fog 62 16.7 62 16.7 100 100 N N/A 29.84 1011 5 8.0467 N/A
11:53 pm 23:53 Mostly Clear with Mist and Fog 61 16 61 16 100 100 NW 5 7 29.83 1010 2.5 4.02335 N/A
11:56 pm 23:56 Mostly Clear with Mist and Fog 61 16.1 60 15.6 97 97 NW 3 6 29.85 1011 2.5 4.02335 N/A

Powered by AerisWeather